[Iaude] MPEC E75: 2024 EV1 [a=1.71,e=0.42,i=5.1,H=22.6]

mpec at cfa.harvard.edu mpec at cfa.harvard.edu
Wed Mar 6 08:08:06 EST 2024


M.P.E.C. 2024-E75                                 Issued 2024 March 6, 13:06 UT

     The Minor Planet Electronic Circulars contain information on unusual
         minor planets, routine data on comets and natural satellites,
         and occasional editorial announcements.  They are published
    on behalf of Division F of the International Astronomical Union by the
          Minor Planet Center, Smithsonian Astrophysical Observatory,
                          Cambridge, MA 02138, U.S.A.
			  
             Prepared using the Tamkin Foundation Computer Network

                              MPC at CFA.HARVARD.EDU
            URL https://www.minorplanetcenter.net/    ISSN 1523-6714

                                    2024 EV1                                    


Observations:
     K24E01V  C2024 02 18.39393610 48 39.578+11 34 20.37         22.46GVEE075F51
     K24E01V  C2024 02 18.40558910 48 38.621+11 34 21.00         21.79GVEE075F51
     K24E01V  C2024 02 18.41731810 48 37.624+11 34 21.45         21.98GVEE075F51
     K24E01V  C2024 02 18.42916810 48 36.657+11 34 21.65         21.22GVEE075F51
     K24E01V  C2024 03 01.49296410 28 54.101+11 38 13.89         22.29GVEE075F51
     K24E01V  C2024 03 01.50508510 28 52.559+11 38 13.16         21.48GVEE075F51
     K24E01V  C2024 03 01.51713710 28 51.083+11 38 12.57         21.73GVEE075F51
     K24E01V*1C2024 03 05.24507910 21 12.460+11 35 25.33         21.04GVEE075G96
     K24E01V 1C2024 03 05.25035010 21 11.790+11 35 25.66         21.37GVEE075G96
     K24E01V 1C2024 03 05.25561110 21 11.084+11 35 25.58         21.38GVEE075G96
     K24E01V  C2024 03 05.29757310 21 05.227+11 35 21.63         21.0 GVEE075H01
     K24E01V  C2024 03 05.30071810 21 04.805+11 35 21.39         20.9 GVEE075H01
     K24E01V  C2024 03 05.31161510 21 03.314+11 35 20.54         21.2 GVEE075H01
     K24E01V  C2024 03 05.31863710 21 02.355+11 35 20.15         20.9 GVEE075H01
     K24E01V KC2024 03 05.37003610 20 55.403+11 35 16.19         21.68GVEE075I52
     K24E01V KC2024 03 05.37506010 20 54.755+11 35 16.40         21.26GVEE075I52
     K24E01V KC2024 03 05.38008410 20 54.035+11 35 16.15         21.67GVEE075I52
     K24E01V KC2024 03 05.38513610 20 53.351+11 35 14.75         21.70GVEE075I52
     K24E01V |C2024 03 06.11424010 19 20.500+11 34 45.10         21.4 GVEE075807
     K24E01V |C2024 03 06.12092010 19 19.550+11 34 44.60         21.5 GVEE075807
     K24E01V |C2024 03 06.12745010 19 18.680+11 34 44.40         21.4 GVEE075807
     K24E01V KC2024 03 06.12749010 19 19.30 +11 34 17.1          21.3 GXEE075858
     K24E01V KC2024 03 06.13918210 19 17.71 +11 34 15.9          21.5 GXEE075858
     K24E01V KC2024 03 06.14915510 19 16.38 +11 34 15.3          20.5 GXEE075858

Observer details:
807 Cerro Tololo Observatory, La Serena.  Observers T. Linder, R. Holmes.
    0.61-m f/6.8 Ritchey-Chretien + CCD.
858 Tebbutt Observatory, Edgewood.  Observer F. B. Zoltowski.  0.51-m f/8.1
    Schmidt-Cassegrain + CCD.
F51 Pan-STARRS 1, Haleakala.  Observers J. Herman, T. Lowe, P. Minguez, A.
    Schultz, I. Smith.  Measurers K. Chambers, T. de Boer, J. Fairlamb, H.
    Gao, M. Huber, C.-C. Lin, E. Magnier, Y. Ramanjooloo, R. Wainscoat, R.
    Weryk.  1.8-m Ritchey-Chretien + CCD.
G96 Mt. Lemmon Survey.  Observer G. J. Leonard.  Measurers T. Beuden, V. F.
    Carvajal, D. Fay, J. B. Fazekas, D. C. Fuls, A. R. Gibbs, A. D. Grauer, H.
    Groeller, J. K. Hogan, R. A. Kowalski, S. M. Larson, G. J. Leonard, D.
    Rankin, R. L. Seaman, F. C. Shelly, K. W. Wierzchos.  1.5-m reflector +
    10K CCD.
H01 Magdalena Ridge Observatory, Socorro.  Observers W. H. Ryan, E. V. Ryan.
    Measurer W. H. Ryan.  2.4-m f/8.9 Ritchey-Chretien + CCD.
I52 Steward Observatory, Mt. Lemmon Station.  Observer J. K. Hogan.  Measurers
    T. Beuden, V. F. Carvajal, D. Fay, J. B. Fazekas, D. C. Fuls, A. R. Gibbs,
    A. D. Grauer, H. Groeller, J. K. Hogan, R. A. Kowalski, S. M. Larson, G.
    J. Leonard, D. Rankin, R. L. Seaman, F. C. Shelly, K. W. Wierzchos.  1.0-m
    prime focus + CCD.

Orbital elements:
2024 EV1                                                 Earth MOID = 0.0736 AU
Epoch 2024 Mar. 31.0 TT = JDT 2460400.5                 Veres                   
M 332.90979              (2000.0)            P               Q                  
n   0.43977998     Peri.  259.77805     -0.42002084     +0.90723151             
a   1.7125598      Node   345.32294     -0.79369259     -0.37933395             
e   0.4223983      Incl.    5.13110     -0.44003929     -0.18176013             
P   2.24           H   22.65          G   0.15           U   8                  
Residuals in seconds of arc
240218 F51  0.0   0.1+    240305 G96  0.1-  0.2+    240305 I52  0.2-  0.4+
240218 F51  0.1+  0.1+    240305 G96  0.1+  0.4+    240305 I52  0.1-  0.6-
240218 F51  0.2-  0.1+    240305 H01  0.2-  0.0     240306 807  0.2+  0.4-
240218 F51  0.2+  0.3-    240305 H01  0.1-  0.0     240306 807  0.2-  0.4-
240301 F51  0.1-  0.3+    240305 H01  0.0   0.1-    240306 807  0.4+  0.2-
240301 F51  0.2-  0.1-    240305 H01  0.0   0.1+    240306 858  0.5-  0.4+
240301 F51  0.4+  0.2-    240305 I52  0.1-  0.4-    240306 858  0.6-  0.1-
240305 G96 (0.9-  0.5-)   240305 I52  0.4+  0.2+    240306 858  0.2-  0.0

Ephemeris:
2024 EV1                 a,e,i = 1.71, 0.42, 5                   q = 0.9892
Date    TT    R. A. (2000) Decl.     Delta      r    Elong.  Phase     V
2024 02 05    11 00 09.4 +11 31 16   0.5744  1.5206   153.2    17.0    23.3
...
2024 02 20    10 46 31.9 +11 35 23   0.4445  1.4294   171.1     6.1    22.1
...
2024 02 28    10 33 39.7 +11 38 39   0.3906  1.3804   176.3     2.7    21.6
...
2024 03 05    10 21 43.6 +11 35 51   0.3573  1.3437   168.4     8.6    21.6
2024 03 06    10 19 34.9 +11 34 39   0.3523  1.3376   166.9     9.7    21.6
2024 03 07    10 17 24.1 +11 33 10   0.3475  1.3316   165.4    10.8    21.7
...
2024 03 13    10 03 45.8 +11 17 46   0.3218  1.2953   156.4    17.9    21.7
...
2024 03 21    09 45 16.1 +10 35 09   0.2953  1.2480   144.4    27.7    21.7
...
2024 04 05    09 15 35.1 +07 54 38   0.2610  1.1638   123.2    46.0    21.8

M. P. C. Staff               (C) Copyright 2024 MPC           M.P.E.C. 2024-E75





More information about the Iaude mailing list